Tracking 30990 objects as of 8-Jul-2025
HD Live streaming from Space Station
objects crossing your sky now

ONEWEB-0046

Track ONEWEB-0046 now!
10-day predictions
ONEWEB-0046 is classified as:


NORAD ID: 45447
Int'l Code: 2020-020Z
Perigee: 1,223.6 km
Apogee: 1,226.1 km
Inclination: 87.9 °
Period: 109.8 minutes
Semi major axis: 7595 km
RCS: Unknown
Launch date: March 21, 2020
Source: United Kingdom (UK)
Launch site: TYURATAM MISSILE AND SPACE COMPLEX (TTMTR)
Your satellite tracking list
Your tracking list is empty




NASA's NSSDC Master Catalog

Two Line Element Set (TLE):
1 45447U 20020Z   25188.74136568 -.00000300  00000-0 -88345-3 0  9998
2 45447  87.8835  89.7139 0001652  81.8775 278.2540 13.11415834257465
Source of the keplerian elements: AFSPC